Year,Month,Day,Hour,Minute,Value (Times are PST for temperature in C)
2009,10,02,00,00,9.70
2009,10,02,00,01,9.70
2009,10,02,00,02,9.70
2009,10,02,00,03,9.80
2009,10,02,00,04,9.80
2009,10,02,00,05,9.90
2009,10,02,00,06,10.00
2009,10,02,00,07,10.10
2009,10,02,00,08,10.20
2009,10,02,00,09,10.30
2009,10,02,00,10,10.30
2009,10,02,00,11,10.40
2009,10,02,00,12,10.40
2009,10,02,00,13,10.40
2009,10,02,00,14,10.40
2009,10,02,00,15,10.40
2009,10,02,00,16,10.50
2009,10,02,00,17,10.40
2009,10,02,00,18,10.40
2009,10,02,00,19,10.40
2009,10,02,00,20,10.40
2009,10,02,00,21,10.40
2009,10,02,00,22,10.40
2009,10,02,00,23,10.40
2009,10,02,00,24,10.40
2009,10,02,00,25,10.40
2009,10,02,00,26,10.40
2009,10,02,00,27,10.40
2009,10,02,00,28,10.40
2009,10,02,00,29,10.40
2009,10,02,00,30,10.40
2009,10,02,00,31,10.40
2009,10,02,00,32,10.40
2009,10,02,00,33,10.40
2009,10,02,00,34,10.40
2009,10,02,00,35,10.40
2009,10,02,00,36,10.50
2009,10,02,00,37,10.50
2009,10,02,00,38,10.60
2009,10,02,00,39,10.60
2009,10,02,00,40,10.60
2009,10,02,00,41,10.60
2009,10,02,00,42,10.50
2009,10,02,00,43,10.50
2009,10,02,00,44,10.50
2009,10,02,00,45,10.40
2009,10,02,00,46,10.40
2009,10,02,00,47,10.40
2009,10,02,00,48,10.40
2009,10,02,00,49,10.40
2009,10,02,00,50,10.40
2009,10,02,00,51,10.40
2009,10,02,00,52,10.40
2009,10,02,00,53,10.40
2009,10,02,00,54,10.40
2009,10,02,00,55,10.40
2009,10,02,00,56,10.40
2009,10,02,00,57,10.40
2009,10,02,00,58,10.40
2009,10,02,00,59,10.40
2009,10,02,01,00,10.40
2009,10,02,01,01,10.40
2009,10,02,01,02,10.40
2009,10,02,01,03,10.40
2009,10,02,01,04,10.40
2009,10,02,01,05,10.40
2009,10,02,01,06,10.40
2009,10,02,01,07,10.40
2009,10,02,01,08,10.30
2009,10,02,01,09,10.30
2009,10,02,01,10,10.40
2009,10,02,01,11,10.30
2009,10,02,01,12,10.30
2009,10,02,01,13,10.30
2009,10,02,01,14,10.30
2009,10,02,01,15,10.30
2009,10,02,01,16,10.30
2009,10,02,01,17,10.30
2009,10,02,01,18,10.30
2009,10,02,01,19,10.30
2009,10,02,01,20,10.30
2009,10,02,01,21,10.20
2009,10,02,01,22,10.20
2009,10,02,01,23,10.20
2009,10,02,01,24,10.20
2009,10,02,01,25,10.10
2009,10,02,01,26,10.10
2009,10,02,01,27,10.10
2009,10,02,01,28,10.10
2009,10,02,01,29,10.10
2009,10,02,01,30,10.00
2009,10,02,01,31,10.00
2009,10,02,01,32,10.00
2009,10,02,01,33,10.00
2009,10,02,01,34,10.00
2009,10,02,01,35,9.90
2009,10,02,01,36,9.90
2009,10,02,01,37,9.90
2009,10,02,01,38,9.90
2009,10,02,01,39,9.90
2009,10,02,01,40,9.90
2009,10,02,01,41,9.80
2009,10,02,01,42,9.80
2009,10,02,01,43,9.80
2009,10,02,01,44,9.80
2009,10,02,01,45,9.80
2009,10,02,01,46,9.70
2009,10,02,01,47,9.70
2009,10,02,01,48,9.70
2009,10,02,01,49,9.60
2009,10,02,01,50,9.60
2009,10,02,01,51,9.50
2009,10,02,01,52,9.50
2009,10,02,01,53,9.50
2009,10,02,01,54,9.40
2009,10,02,01,55,9.40
2009,10,02,01,56,9.40
2009,10,02,01,57,9.40
2009,10,02,01,58,9.30
2009,10,02,01,59,9.40
2009,10,02,02,00,9.40
2009,10,02,02,01,9.40
2009,10,02,02,02,9.30
2009,10,02,02,03,9.30
2009,10,02,02,04,9.30
2009,10,02,02,05,9.30
2009,10,02,02,06,9.30
2009,10,02,02,07,9.30
2009,10,02,02,08,9.30
2009,10,02,02,09,9.30
2009,10,02,02,10,9.20
2009,10,02,02,11,9.20
2009,10,02,02,12,9.20
2009,10,02,02,13,9.20
2009,10,02,02,14,9.20
2009,10,02,02,15,9.10
2009,10,02,02,16,9.10
2009,10,02,02,17,9.10
2009,10,02,02,18,9.10
2009,10,02,02,19,9.10
2009,10,02,02,20,9.10
2009,10,02,02,21,9.00
2009,10,02,02,22,9.00
2009,10,02,02,23,9.00
2009,10,02,02,24,8.90
2009,10,02,02,25,8.90
2009,10,02,02,26,8.90
2009,10,02,02,27,8.90
2009,10,02,02,28,8.80
2009,10,02,02,29,8.80
2009,10,02,02,30,8.70
2009,10,02,02,31,8.70
2009,10,02,02,32,8.70
2009,10,02,02,33,8.60
2009,10,02,02,34,8.50
2009,10,02,02,35,8.50
2009,10,02,02,36,8.40
2009,10,02,02,37,8.40
2009,10,02,02,38,8.30
2009,10,02,02,39,8.30
2009,10,02,02,40,8.30
2009,10,02,02,41,8.20
2009,10,02,02,42,8.20
2009,10,02,02,43,8.20
2009,10,02,02,44,8.20
2009,10,02,02,45,8.20
2009,10,02,02,46,8.20
2009,10,02,02,47,8.10
2009,10,02,02,48,8.10
2009,10,02,02,49,8.10
2009,10,02,02,50,8.10
2009,10,02,02,51,8.10
2009,10,02,02,52,8.10
2009,10,02,02,53,8.10
2009,10,02,02,54,8.10
2009,10,02,02,55,8.10
2009,10,02,02,56,8.10
2009,10,02,02,57,8.00
2009,10,02,02,58,8.00
2009,10,02,02,59,8.00
2009,10,02,03,00,7.90
2009,10,02,03,01,7.90
2009,10,02,03,02,7.90
2009,10,02,03,03,7.90
2009,10,02,03,04,7.80
2009,10,02,03,05,7.70
2009,10,02,03,06,7.70
2009,10,02,03,07,7.60
2009,10,02,03,08,7.60
2009,10,02,03,09,7.60
2009,10,02,03,10,7.50
2009,10,02,03,11,7.50
2009,10,02,03,12,7.40
2009,10,02,03,13,7.40
2009,10,02,03,14,7.40
2009,10,02,03,15,7.40
2009,10,02,03,16,7.30
2009,10,02,03,17,7.30
2009,10,02,03,18,7.30
2009,10,02,03,19,7.30
2009,10,02,03,20,7.30
2009,10,02,03,21,7.30
2009,10,02,03,22,7.20
2009,10,02,03,23,7.20
2009,10,02,03,24,7.20
2009,10,02,03,25,7.20
2009,10,02,03,26,7.20
2009,10,02,03,27,7.20
2009,10,02,03,28,7.20
2009,10,02,03,29,7.20
2009,10,02,03,30,7.20
2009,10,02,03,31,7.10
2009,10,02,03,32,7.10
2009,10,02,03,33,7.10
2009,10,02,03,34,7.10
2009,10,02,03,35,7.00
2009,10,02,03,36,7.00
2009,10,02,03,37,7.00
2009,10,02,03,38,6.90
2009,10,02,03,39,6.90
2009,10,02,03,40,6.90
2009,10,02,03,41,6.90
2009,10,02,03,42,6.90
2009,10,02,03,43,6.80
2009,10,02,03,44,6.80
2009,10,02,03,45,6.80
2009,10,02,03,46,6.80
2009,10,02,03,47,6.80
2009,10,02,03,48,6.70
2009,10,02,03,49,6.70
2009,10,02,03,50,6.80
2009,10,02,03,51,6.80
2009,10,02,03,52,6.80
2009,10,02,03,53,6.80
2009,10,02,03,54,6.80
2009,10,02,03,55,6.80
2009,10,02,03,56,6.90
2009,10,02,03,57,6.90
2009,10,02,03,58,7.00
2009,10,02,03,59,7.00
2009,10,02,04,00,7.10
2009,10,02,04,01,7.20
2009,10,02,04,02,7.20
2009,10,02,04,03,7.30
2009,10,02,04,04,7.30
2009,10,02,04,05,7.40
2009,10,02,04,06,7.40
2009,10,02,04,07,7.50
2009,10,02,04,08,7.60
2009,10,02,04,09,7.60
2009,10,02,04,10,7.60
2009,10,02,04,11,7.60
2009,10,02,04,12,7.70
2009,10,02,04,13,7.70
2009,10,02,04,14,7.70
2009,10,02,04,15,7.70
2009,10,02,04,16,7.70
2009,10,02,04,17,7.70
2009,10,02,04,18,7.60
2009,10,02,04,19,7.60
2009,10,02,04,20,7.60
2009,10,02,04,21,7.50
2009,10,02,04,22,7.50
2009,10,02,04,23,7.40
2009,10,02,04,24,7.40
2009,10,02,04,25,7.40
2009,10,02,04,26,7.40
2009,10,02,04,27,7.40
2009,10,02,04,28,7.40
2009,10,02,04,29,7.30
2009,10,02,04,30,7.40
2009,10,02,04,31,7.40
2009,10,02,04,32,7.40
2009,10,02,04,33,7.40
2009,10,02,04,34,7.40
2009,10,02,04,35,7.40
2009,10,02,04,36,7.40
2009,10,02,04,37,7.40
2009,10,02,04,38,7.40
2009,10,02,04,39,7.40
2009,10,02,04,40,7.40
2009,10,02,04,41,7.40
2009,10,02,04,42,7.40
2009,10,02,04,43,7.40
2009,10,02,04,44,7.40
2009,10,02,04,45,7.40
2009,10,02,04,46,7.40
2009,10,02,04,47,7.40
2009,10,02,04,48,7.40
2009,10,02,04,49,7.40
2009,10,02,04,50,7.40
2009,10,02,04,51,7.40
2009,10,02,04,52,7.40
2009,10,02,04,53,7.40
2009,10,02,04,54,7.40
2009,10,02,04,55,7.40
2009,10,02,04,56,7.40
2009,10,02,04,57,7.40
2009,10,02,04,58,7.40
2009,10,02,04,59,7.40
2009,10,02,05,00,7.40
2009,10,02,05,01,7.30
2009,10,02,05,02,7.30
2009,10,02,05,03,7.30
2009,10,02,05,04,7.30
2009,10,02,05,05,7.30
2009,10,02,05,06,7.20
2009,10,02,05,07,7.20
2009,10,02,05,08,7.20
2009,10,02,05,09,7.20
2009,10,02,05,10,7.20
2009,10,02,05,11,7.20
2009,10,02,05,12,7.20
2009,10,02,05,13,7.20
2009,10,02,05,14,7.20
2009,10,02,05,15,7.20
2009,10,02,05,16,7.20
2009,10,02,05,17,7.20
2009,10,02,05,18,7.20
2009,10,02,05,19,7.20
2009,10,02,05,20,7.20
2009,10,02,05,21,7.20
2009,10,02,05,22,7.20
2009,10,02,05,23,7.20
2009,10,02,05,24,7.10
2009,10,02,05,25,7.10
2009,10,02,05,26,7.10
2009,10,02,05,27,7.10
2009,10,02,05,28,7.00
2009,10,02,05,29,7.00
2009,10,02,05,30,6.90
2009,10,02,05,31,6.90
2009,10,02,05,32,6.90
2009,10,02,05,33,6.90
2009,10,02,05,34,6.80
2009,10,02,05,35,6.80
2009,10,02,05,36,6.80
2009,10,02,05,37,6.70
2009,10,02,05,38,6.70
2009,10,02,05,39,6.70
2009,10,02,05,40,6.70
2009,10,02,05,41,6.70
2009,10,02,05,42,6.60
2009,10,02,05,43,6.60
2009,10,02,05,44,6.60
2009,10,02,05,45,6.50
2009,10,02,05,46,6.50
2009,10,02,05,47,6.40
2009,10,02,05,48,6.40
2009,10,02,05,49,6.40
2009,10,02,05,50,6.40
2009,10,02,05,51,6.40
2009,10,02,05,52,6.40
2009,10,02,05,53,6.40
2009,10,02,05,54,6.40
2009,10,02,05,55,6.40
2009,10,02,05,56,6.40
2009,10,02,05,57,6.30
2009,10,02,05,58,6.30
2009,10,02,05,59,6.30
2009,10,02,06,00,6.20
2009,10,02,06,01,6.20
2009,10,02,06,02,6.20
2009,10,02,06,03,6.20
2009,10,02,06,04,6.20
2009,10,02,06,05,6.20
2009,10,02,06,06,6.20
2009,10,02,06,07,6.20
2009,10,02,06,08,6.20
2009,10,02,06,09,6.30
2009,10,02,06,10,6.30
2009,10,02,06,11,6.30
2009,10,02,06,12,6.30
2009,10,02,06,13,6.30
2009,10,02,06,14,6.30
2009,10,02,06,15,6.30
2009,10,02,06,16,6.30
2009,10,02,06,17,6.30
2009,10,02,06,18,6.40
2009,10,02,06,19,6.40
2009,10,02,06,20,6.40
2009,10,02,06,21,6.40
2009,10,02,06,22,6.40
2009,10,02,06,23,6.40
2009,10,02,06,24,6.40
2009,10,02,06,25,6.40
2009,10,02,06,26,6.40
2009,10,02,06,27,6.40
2009,10,02,06,28,6.40
2009,10,02,06,29,6.40
2009,10,02,06,30,6.40
2009,10,02,06,31,6.40
2009,10,02,06,32,6.40
2009,10,02,06,33,6.40
2009,10,02,06,34,6.40
2009,10,02,06,35,6.40
2009,10,02,06,36,6.40
2009,10,02,06,37,6.40
2009,10,02,06,38,6.50
2009,10,02,06,39,6.50
2009,10,02,06,40,6.50
2009,10,02,06,41,6.50
2009,10,02,06,42,6.50
2009,10,02,06,43,6.50
2009,10,02,06,44,6.50
2009,10,02,06,45,6.40
2009,10,02,06,46,6.40
2009,10,02,06,47,6.40
2009,10,02,06,48,6.40
2009,10,02,06,49,6.40
2009,10,02,06,50,6.40
2009,10,02,06,51,6.40
2009,10,02,06,52,6.40
2009,10,02,06,53,6.30
2009,10,02,06,54,6.30
2009,10,02,06,55,6.30
2009,10,02,06,56,6.30
2009,10,02,06,57,6.30
2009,10,02,06,58,6.30
2009,10,02,06,59,6.30
2009,10,02,07,00,6.30
2009,10,02,07,01,6.30
2009,10,02,07,02,6.30
2009,10,02,07,03,6.30
2009,10,02,07,04,6.40
2009,10,02,07,05,6.40
2009,10,02,07,06,6.40
2009,10,02,07,07,6.40
2009,10,02,07,08,6.40
2009,10,02,07,09,6.40
2009,10,02,07,10,6.40
2009,10,02,07,11,6.40
2009,10,02,07,12,6.40
2009,10,02,07,13,6.40
2009,10,02,07,14,6.40
2009,10,02,07,15,6.40
2009,10,02,07,16,6.40
2009,10,02,07,17,6.40
2009,10,02,07,18,6.40
2009,10,02,07,19,6.40
2009,10,02,07,20,6.40
2009,10,02,07,21,6.40
2009,10,02,07,22,6.40
2009,10,02,07,23,6.40
2009,10,02,07,24,6.50
2009,10,02,07,25,6.50
2009,10,02,07,26,6.50
2009,10,02,07,27,6.60
2009,10,02,07,28,6.60
2009,10,02,07,29,6.60
2009,10,02,07,30,6.60
2009,10,02,07,31,6.50
2009,10,02,07,32,6.50
2009,10,02,07,33,6.50
2009,10,02,07,34,6.50
2009,10,02,07,35,6.50
2009,10,02,07,36,6.60
2009,10,02,07,37,6.60
2009,10,02,07,38,6.60
2009,10,02,07,39,6.60
2009,10,02,07,40,6.60
2009,10,02,07,41,6.60
2009,10,02,07,42,6.60
2009,10,02,07,43,6.60
2009,10,02,07,44,6.60
2009,10,02,07,45,6.60
2009,10,02,07,46,6.60
2009,10,02,07,47,6.60
2009,10,02,07,48,6.70
2009,10,02,07,49,6.70
2009,10,02,07,50,6.70
2009,10,02,07,51,6.70
2009,10,02,07,52,6.70
2009,10,02,07,53,6.70
2009,10,02,07,54,6.80
2009,10,02,07,55,6.80
2009,10,02,07,56,6.80
2009,10,02,07,57,6.80
2009,10,02,07,58,6.80
2009,10,02,07,59,6.80
2009,10,02,08,00,6.80
2009,10,02,08,01,6.80
2009,10,02,08,02,6.80
2009,10,02,08,03,6.80
2009,10,02,08,04,6.80
2009,10,02,08,05,6.80
2009,10,02,08,06,6.80
2009,10,02,08,07,6.80
2009,10,02,08,08,6.90
2009,10,02,08,09,6.90
2009,10,02,08,10,6.90
2009,10,02,08,11,6.90
2009,10,02,08,12,6.90
2009,10,02,08,13,6.90
2009,10,02,08,14,6.90
2009,10,02,08,15,6.90
2009,10,02,08,16,7.00
2009,10,02,08,17,7.00
2009,10,02,08,18,7.00
2009,10,02,08,19,7.00
2009,10,02,08,20,7.00
2009,10,02,08,21,7.00
2009,10,02,08,22,7.10
2009,10,02,08,23,7.10
2009,10,02,08,24,7.10
2009,10,02,08,25,7.10
2009,10,02,08,26,7.10
2009,10,02,08,27,7.20
2009,10,02,08,28,7.20
2009,10,02,08,29,7.20
2009,10,02,08,30,7.20
2009,10,02,08,31,7.20
2009,10,02,08,32,7.20
2009,10,02,08,33,7.20
2009,10,02,08,34,7.20
2009,10,02,08,35,7.20
2009,10,02,08,36,7.20
2009,10,02,08,37,7.10
2009,10,02,08,38,7.20
2009,10,02,08,39,7.20
2009,10,02,08,40,7.20
2009,10,02,08,41,7.20
2009,10,02,08,42,7.20
2009,10,02,08,43,7.20
2009,10,02,08,44,7.20
2009,10,02,08,45,7.20
2009,10,02,08,46,7.20
2009,10,02,08,47,7.20
2009,10,02,08,48,7.20
2009,10,02,08,49,7.20
2009,10,02,08,50,7.30
2009,10,02,08,51,7.30
2009,10,02,08,52,7.30
2009,10,02,08,53,7.40
2009,10,02,08,54,7.40
2009,10,02,08,55,7.40
2009,10,02,08,56,7.50
2009,10,02,08,57,7.60
2009,10,02,08,58,7.60
2009,10,02,08,59,7.70
2009,10,02,09,00,7.70
2009,10,02,09,01,7.70
2009,10,02,09,02,7.80
2009,10,02,09,03,7.80
2009,10,02,09,04,7.80
2009,10,02,09,05,7.90
2009,10,02,09,06,7.90
2009,10,02,09,07,7.90
2009,10,02,09,08,7.90
2009,10,02,09,09,7.90
2009,10,02,09,10,8.00
2009,10,02,09,11,8.00
2009,10,02,09,12,8.00
2009,10,02,09,13,8.10
2009,10,02,09,14,8.10
2009,10,02,09,15,8.10
2009,10,02,09,16,8.10
2009,10,02,09,17,8.20
2009,10,02,09,18,8.20
2009,10,02,09,19,8.20
2009,10,02,09,20,8.20
2009,10,02,09,21,8.30
2009,10,02,09,22,8.30
2009,10,02,09,23,8.40
2009,10,02,09,24,8.40
2009,10,02,09,25,8.50
2009,10,02,09,26,8.50
2009,10,02,09,27,8.60
2009,10,02,09,28,8.60
2009,10,02,09,29,8.70
2009,10,02,09,30,8.70
2009,10,02,09,31,8.70
2009,10,02,09,32,8.80
2009,10,02,09,33,8.80
2009,10,02,09,34,8.80
2009,10,02,09,35,8.80
2009,10,02,09,36,8.90
2009,10,02,09,37,8.90
2009,10,02,09,38,8.90
2009,10,02,09,39,8.90
2009,10,02,09,40,9.00
2009,10,02,09,41,9.00
2009,10,02,09,42,9.10
2009,10,02,09,43,9.10
2009,10,02,09,44,9.10
2009,10,02,09,45,9.20
2009,10,02,09,46,9.20
2009,10,02,09,47,9.20
2009,10,02,09,48,9.20
2009,10,02,09,49,9.20
2009,10,02,09,50,9.30
2009,10,02,09,51,9.30
2009,10,02,09,52,9.30
2009,10,02,09,53,9.30
2009,10,02,09,54,9.30
2009,10,02,09,55,9.30
2009,10,02,09,56,9.30
2009,10,02,09,57,9.30
2009,10,02,09,58,9.40
2009,10,02,09,59,9.40
2009,10,02,10,00,9.50
2009,10,02,10,01,9.60
2009,10,02,10,02,9.60
2009,10,02,10,03,9.60
2009,10,02,10,04,9.70
2009,10,02,10,05,9.70
2009,10,02,10,06,9.70
2009,10,02,10,07,9.80
2009,10,02,10,08,9.80
2009,10,02,10,09,9.80
2009,10,02,10,10,9.80
2009,10,02,10,11,9.90
2009,10,02,10,12,9.90
2009,10,02,10,13,9.90
2009,10,02,10,14,9.90
2009,10,02,10,15,10.00
2009,10,02,10,16,10.00
2009,10,02,10,17,10.00
2009,10,02,10,18,10.00
2009,10,02,10,19,10.00
2009,10,02,10,20,10.10
2009,10,02,10,21,10.10
2009,10,02,10,22,10.10
2009,10,02,10,23,10.20
2009,10,02,10,24,10.30
2009,10,02,10,25,10.40
2009,10,02,10,26,10.40
2009,10,02,10,27,10.50
2009,10,02,10,28,10.50
2009,10,02,10,29,10.50
2009,10,02,10,30,10.50
2009,10,02,10,31,10.60
2009,10,02,10,32,10.60
2009,10,02,10,33,10.60
2009,10,02,10,34,10.60
2009,10,02,10,35,10.60
2009,10,02,10,36,10.60
2009,10,02,10,37,10.60
2009,10,02,10,38,10.70
2009,10,02,10,39,10.70
2009,10,02,10,40,10.70
2009,10,02,10,41,10.70
2009,10,02,10,42,10.70
2009,10,02,10,43,10.70
2009,10,02,10,44,10.80
2009,10,02,10,45,10.90
2009,10,02,10,46,11.00
2009,10,02,10,47,11.00
2009,10,02,10,48,11.10
2009,10,02,10,49,11.10
2009,10,02,10,50,11.10
2009,10,02,10,51,11.10
2009,10,02,10,52,11.10
2009,10,02,10,53,11.10
2009,10,02,10,54,11.10
2009,10,02,10,55,11.10
2009,10,02,10,56,11.20
2009,10,02,10,57,11.30
2009,10,02,10,58,11.30
2009,10,02,10,59,11.40
2009,10,02,11,00,11.50
2009,10,02,11,01,11.60
2009,10,02,11,02,11.70
2009,10,02,11,03,11.70
2009,10,02,11,04,11.70
2009,10,02,11,05,11.70
2009,10,02,11,06,11.70
2009,10,02,11,07,11.70
2009,10,02,11,08,11.70
2009,10,02,11,09,11.70
2009,10,02,11,10,11.70
2009,10,02,11,11,11.70
2009,10,02,11,12,11.70
2009,10,02,11,13,11.70
2009,10,02,11,14,11.70
2009,10,02,11,15,11.70
2009,10,02,11,16,11.70
2009,10,02,11,17,11.70
2009,10,02,11,18,11.70
2009,10,02,11,19,11.70
2009,10,02,11,20,11.70
2009,10,02,11,21,11.70
2009,10,02,11,22,11.70
2009,10,02,11,23,11.80
2009,10,02,11,24,11.80
2009,10,02,11,25,11.80
2009,10,02,11,26,11.80
2009,10,02,11,27,11.80
2009,10,02,11,28,11.80
2009,10,02,11,29,11.80
2009,10,02,11,30,11.80
2009,10,02,11,31,11.80
2009,10,02,11,32,11.80
2009,10,02,11,33,11.90
2009,10,02,11,34,11.90
2009,10,02,11,35,11.90
2009,10,02,11,36,11.90
2009,10,02,11,37,11.90
2009,10,02,11,38,11.90
2009,10,02,11,39,11.80
2009,10,02,11,40,11.80
2009,10,02,11,41,11.90
2009,10,02,11,42,11.80
2009,10,02,11,43,11.80
2009,10,02,11,44,11.80
2009,10,02,11,45,11.90
2009,10,02,11,46,11.90
2009,10,02,11,47,11.90
2009,10,02,11,48,11.90
2009,10,02,11,49,12.00
2009,10,02,11,50,12.00
2009,10,02,11,51,12.10
2009,10,02,11,52,12.10
2009,10,02,11,53,12.20
2009,10,02,11,54,12.30
2009,10,02,11,55,12.40
2009,10,02,11,56,12.40
2009,10,02,11,57,12.50
2009,10,02,11,58,12.60
2009,10,02,11,59,12.70
2009,10,02,12,00,12.70
2009,10,02,12,01,12.70
2009,10,02,12,02,12.70
2009,10,02,12,03,12.60
2009,10,02,12,04,12.60
2009,10,02,12,05,12.60
2009,10,02,12,06,12.60
2009,10,02,12,07,12.60
2009,10,02,12,08,12.60
2009,10,02,12,09,12.60
2009,10,02,12,10,12.60
2009,10,02,12,11,12.50
2009,10,02,12,12,12.50
2009,10,02,12,13,12.40
2009,10,02,12,14,12.40
2009,10,02,12,15,12.40
2009,10,02,12,16,12.40
2009,10,02,12,17,12.40
2009,10,02,12,18,12.40
2009,10,02,12,19,12.40
2009,10,02,12,20,12.30
2009,10,02,12,21,12.30
2009,10,02,12,22,12.30
2009,10,02,12,23,12.30
2009,10,02,12,24,12.30
2009,10,02,12,25,12.30
2009,10,02,12,26,12.30
2009,10,02,12,27,12.30
2009,10,02,12,28,12.30
2009,10,02,12,29,12.30
2009,10,02,12,30,12.30
2009,10,02,12,31,12.30
2009,10,02,12,32,12.30
2009,10,02,12,33,12.30
2009,10,02,12,34,12.40
2009,10,02,12,35,12.40
2009,10,02,12,36,12.50
2009,10,02,12,37,12.50
2009,10,02,12,38,12.60
2009,10,02,12,39,12.80
2009,10,02,12,40,12.90
2009,10,02,12,41,12.90
2009,10,02,12,42,13.00
2009,10,02,12,43,13.10
2009,10,02,12,44,13.20
2009,10,02,12,45,13.30
2009,10,02,12,46,13.40
2009,10,02,12,47,13.50
2009,10,02,12,48,13.60
2009,10,02,12,49,13.70
2009,10,02,12,50,13.70
2009,10,02,12,51,13.80
2009,10,02,12,52,13.90
2009,10,02,12,53,14.00
2009,10,02,12,54,14.00
2009,10,02,12,55,14.10
2009,10,02,12,56,14.20
2009,10,02,12,57,14.30
2009,10,02,12,58,14.30
2009,10,02,12,59,14.30
2009,10,02,13,00,14.30
2009,10,02,13,01,14.20
2009,10,02,13,02,14.20
2009,10,02,13,03,14.20
2009,10,02,13,04,14.20
2009,10,02,13,05,14.20
2009,10,02,13,06,14.20
2009,10,02,13,07,14.30
2009,10,02,13,08,14.30
2009,10,02,13,09,14.30
2009,10,02,13,10,14.30
2009,10,02,13,11,14.30
2009,10,02,13,12,14.30
2009,10,02,13,13,14.20
2009,10,02,13,14,14.20
2009,10,02,13,15,14.10
2009,10,02,13,16,14.10
2009,10,02,13,17,14.00
2009,10,02,13,18,13.90
2009,10,02,13,19,13.90
2009,10,02,13,20,13.80
2009,10,02,13,21,13.70
2009,10,02,13,22,13.70
2009,10,02,13,23,13.60
2009,10,02,13,24,13.50
2009,10,02,13,25,13.30
2009,10,02,13,26,13.20
2009,10,02,13,27,13.10
2009,10,02,13,28,13.00
2009,10,02,13,29,13.00
2009,10,02,13,30,12.90
2009,10,02,13,31,12.90
2009,10,02,13,32,12.80
2009,10,02,13,33,12.90
2009,10,02,13,34,12.90
2009,10,02,13,35,13.00
2009,10,02,13,36,13.10
2009,10,02,13,37,13.20
2009,10,02,13,38,13.30
2009,10,02,13,39,13.40
2009,10,02,13,40,13.40
2009,10,02,13,41,13.50
2009,10,02,13,42,13.50
2009,10,02,13,43,13.50
2009,10,02,13,44,13.50
2009,10,02,13,45,13.50
2009,10,02,13,46,13.40
2009,10,02,13,47,13.40
2009,10,02,13,48,13.40
2009,10,02,13,49,13.50
2009,10,02,13,50,13.50
2009,10,02,13,51,13.60
2009,10,02,13,52,13.70
2009,10,02,13,53,13.80
2009,10,02,13,54,13.90
2009,10,02,13,55,14.00
2009,10,02,13,56,14.00
2009,10,02,13,57,14.10
2009,10,02,13,58,14.00
2009,10,02,13,59,14.00
2009,10,02,14,00,14.00
2009,10,02,14,01,14.00
2009,10,02,14,02,14.10
2009,10,02,14,03,14.10
2009,10,02,14,04,14.10
2009,10,02,14,05,14.10
2009,10,02,14,06,14.00
2009,10,02,14,07,14.00
2009,10,02,14,08,14.00
2009,10,02,14,09,13.90
2009,10,02,14,10,13.90
2009,10,02,14,11,13.80
2009,10,02,14,12,13.80
2009,10,02,14,13,13.70
2009,10,02,14,14,13.70
2009,10,02,14,15,13.70
2009,10,02,14,16,13.60
2009,10,02,14,17,13.60
2009,10,02,14,18,13.50
2009,10,02,14,19,13.40
2009,10,02,14,20,13.40
2009,10,02,14,21,13.40
2009,10,02,14,22,13.40
2009,10,02,14,23,13.30
2009,10,02,14,24,13.30
2009,10,02,14,25,13.30
2009,10,02,14,26,13.30
2009,10,02,14,27,13.30
2009,10,02,14,28,13.30
2009,10,02,14,29,13.30
2009,10,02,14,30,13.30
2009,10,02,14,31,13.30
2009,10,02,14,32,13.30
2009,10,02,14,33,13.30
2009,10,02,14,34,13.40
2009,10,02,14,35,13.50
2009,10,02,14,36,13.50
2009,10,02,14,37,13.60
2009,10,02,14,38,13.70
2009,10,02,14,39,13.80
2009,10,02,14,40,13.80
2009,10,02,14,41,13.90
2009,10,02,14,42,13.90
2009,10,02,14,43,13.90
2009,10,02,14,44,13.90
2009,10,02,14,45,13.90
2009,10,02,14,46,14.00
2009,10,02,14,47,14.00
2009,10,02,14,48,14.20
2009,10,02,14,49,14.30
2009,10,02,14,50,14.40
2009,10,02,14,51,14.50
2009,10,02,14,52,14.60
2009,10,02,14,53,14.60
2009,10,02,14,54,14.50
2009,10,02,14,55,14.50
2009,10,02,14,56,14.40
2009,10,02,14,57,14.40
2009,10,02,14,58,14.30
2009,10,02,14,59,14.30
2009,10,02,15,00,14.30
2009,10,02,15,01,14.30
2009,10,02,15,02,14.20
2009,10,02,15,03,14.30
2009,10,02,15,04,14.30
2009,10,02,15,05,14.30
2009,10,02,15,06,14.30
2009,10,02,15,07,14.30
2009,10,02,15,08,14.40
2009,10,02,15,09,14.40
2009,10,02,15,10,14.40
2009,10,02,15,11,14.50
2009,10,02,15,12,14.50
2009,10,02,15,13,14.40
2009,10,02,15,14,14.40
2009,10,02,15,15,14.40
2009,10,02,15,16,14.40
2009,10,02,15,17,14.40
2009,10,02,15,18,14.40
2009,10,02,15,19,14.40
2009,10,02,15,20,14.30
2009,10,02,15,21,14.30
2009,10,02,15,22,14.30
2009,10,02,15,23,14.20
2009,10,02,15,24,14.20
2009,10,02,15,25,14.20
2009,10,02,15,26,14.20
2009,10,02,15,27,14.20
2009,10,02,15,28,14.20
2009,10,02,15,29,14.20
2009,10,02,15,30,14.20
2009,10,02,15,31,14.20
2009,10,02,15,32,14.20
2009,10,02,15,33,14.20
2009,10,02,15,34,14.20
2009,10,02,15,35,14.20
2009,10,02,15,36,14.20
2009,10,02,15,37,14.10
2009,10,02,15,38,14.10
2009,10,02,15,39,14.10
2009,10,02,15,40,14.10
2009,10,02,15,41,14.10
2009,10,02,15,42,14.00
2009,10,02,15,43,14.00
2009,10,02,15,44,13.90
2009,10,02,15,45,13.90
2009,10,02,15,46,13.90
2009,10,02,15,47,14.00
2009,10,02,15,48,14.00
2009,10,02,15,49,14.00
2009,10,02,15,50,14.00
2009,10,02,15,51,14.10
2009,10,02,15,52,14.10
2009,10,02,15,53,14.20
2009,10,02,15,54,14.30
2009,10,02,15,55,14.30
2009,10,02,15,56,14.40
2009,10,02,15,57,14.40
2009,10,02,15,58,14.50
2009,10,02,15,59,14.60
2009,10,02,16,00,14.60
2009,10,02,16,01,14.60
2009,10,02,16,02,14.60
2009,10,02,16,03,14.50
2009,10,02,16,04,14.50
2009,10,02,16,05,14.40
2009,10,02,16,06,14.40
2009,10,02,16,07,14.40
2009,10,02,16,08,14.40
2009,10,02,16,09,14.40
2009,10,02,16,10,14.30
2009,10,02,16,11,14.30
2009,10,02,16,12,14.30
2009,10,02,16,13,14.30
2009,10,02,16,14,14.30
2009,10,02,16,15,14.30
2009,10,02,16,16,14.20
2009,10,02,16,17,14.20
2009,10,02,16,18,14.20
2009,10,02,16,19,14.20
2009,10,02,16,20,14.20
2009,10,02,16,21,14.20
2009,10,02,16,22,14.20
2009,10,02,16,23,14.20
2009,10,02,16,24,14.20
2009,10,02,16,25,14.30
2009,10,02,16,26,14.30
2009,10,02,16,27,14.30
2009,10,02,16,28,14.40
2009,10,02,16,29,14.40
2009,10,02,16,30,14.40
2009,10,02,16,31,14.40
2009,10,02,16,32,14.40
2009,10,02,16,33,14.40
2009,10,02,16,34,14.40
2009,10,02,16,35,14.40
2009,10,02,16,36,14.50
2009,10,02,16,37,14.50
2009,10,02,16,38,14.60
2009,10,02,16,39,14.60
2009,10,02,16,40,14.70
2009,10,02,16,41,14.70
2009,10,02,16,42,14.60
2009,10,02,16,43,14.50
2009,10,02,16,44,14.50
2009,10,02,16,45,14.50
2009,10,02,16,46,14.60
2009,10,02,16,47,14.60
2009,10,02,16,48,14.60
2009,10,02,16,49,14.60
2009,10,02,16,50,14.70
2009,10,02,16,51,14.70
2009,10,02,16,52,14.80
2009,10,02,16,53,14.80
2009,10,02,16,54,14.80
2009,10,02,16,55,14.90
2009,10,02,16,56,14.90
2009,10,02,16,57,15.00
2009,10,02,16,58,15.00
2009,10,02,16,59,15.00
2009,10,02,17,00,14.90
2009,10,02,17,01,14.80
2009,10,02,17,02,14.80
2009,10,02,17,03,14.70
2009,10,02,17,04,14.60
2009,10,02,17,05,14.50
2009,10,02,17,06,14.40
2009,10,02,17,07,14.40
2009,10,02,17,08,14.30
2009,10,02,17,09,14.20
2009,10,02,17,10,14.20
2009,10,02,17,11,14.20
2009,10,02,17,12,14.20
2009,10,02,17,13,14.10
2009,10,02,17,14,14.10
2009,10,02,17,15,14.00
2009,10,02,17,16,14.00
2009,10,02,17,17,13.90
2009,10,02,17,18,13.70
2009,10,02,17,19,13.60
2009,10,02,17,20,13.50
2009,10,02,17,21,13.40
2009,10,02,17,22,13.30
2009,10,02,17,23,13.30
2009,10,02,17,24,13.30
2009,10,02,17,25,13.30
2009,10,02,17,26,13.30
2009,10,02,17,27,13.30
2009,10,02,17,28,13.30
2009,10,02,17,29,13.30
2009,10,02,17,30,13.30
2009,10,02,17,31,13.20
2009,10,02,17,32,13.20
2009,10,02,17,33,13.20
2009,10,02,17,34,13.20
2009,10,02,17,35,13.20
2009,10,02,17,36,13.20
2009,10,02,17,37,13.20
2009,10,02,17,38,13.20
2009,10,02,17,39,13.10
2009,10,02,17,40,13.10
2009,10,02,17,41,13.10
2009,10,02,17,42,13.00